FW6321 Weather Reports


Display with metric or nautical units.
time (UTC)temp
F
wind
direction
speed
MPH
gust
MPH
rain 1hr
in
rain 24hr
in
rain mn
in
humidity
%
barometer
mb
20210307054831 33 351 0.0 1.0 0.00 0.00 0.00 93 1028.3
20210307054335 32 351 0.0 1.0 0.00 0.00 0.00 93 1028.3
20210307053827 32 351 0.0 2.0 0.00 0.00 0.00 92 1028.5
20210307053327 32 351 0.0 2.0 0.00 0.00 0.00 93 1028.4
20210307052859 32 351 0.0 2.0 0.00 0.00 0.00 93 1028.5
20210307052805 32 351 0.0 2.0 0.00 0.00 0.00 92 1028.5
20210307051910 32 351 0.0 1.0 0.00 0.00 0.00 93 1028.4
20210307051329 32 351 0.0 2.0 0.00 0.00 0.00 92 1028.5
20210307050831 32 351 0.0 2.0 0.00 0.00 0.00 93 1028.6
20210307050325 31 351 0.0 2.0 0.00 0.00 0.00 93 1028.7
20210307045822 31 351 0.0 1.0 0.00 0.00 0.00 92 1028.6
20210307045618 31 351 0.0 1.0 0.00 0.00 0.00 92 1028.7
20210307044842 31 351 0.0 2.0 0.00 0.00 0.00 92 1028.6
20210307044325 31 351 1.0 2.0 0.00 0.00 0.00 92 1028.6
20210307043824 31 351 1.0 2.0 0.00 0.00 0.00 92 1028.6
20210307043326 31 351 1.0 2.0 0.00 0.00 0.00 92 1028.7
20210307042920 31 351 1.0 2.0 0.00 0.00 0.00 92 1028.7
20210307042711 31 351 1.0 2.0 0.00 0.00 0.00 92 1028.6
20210307041903 30 351 0.0 2.0 0.00 0.00 0.00 92 1028.7
20210307041325 30 351 0.0 1.0 0.00 0.00 0.00 91 1028.7
20210307040833 31 351 1.0 3.0 0.00 0.00 0.00 91 1028.8
20210307040327 31 351 1.0 3.0 0.00 0.00 0.00 91 1028.7
20210307035954 31 351 1.0 2.0 0.00 0.00 0.00 91 1028.7
20210307035735 31 351 1.0 2.0 0.00 0.00 0.00 91 1028.9
20210307034946 31 350 0.0 1.0 0.00 0.00 0.00 91 1028.9
20210307034129 31 350 0.0 2.0 0.00 0.00 0.00 91 1028.8
20210307033625 32 350 0.0 2.0 0.00 0.00 0.00 91 1029.0
20210307033307 32 350 0.0 1.0 0.00 0.00 0.00 91 1029.0
20210307033055 32 350 0.0 1.0 0.00 0.00 0.00 91 1028.9
20210307032722 31 350 0.0 1.0 0.00 0.00 0.00 92 1029.0
20210307031038 31 350 0.0 1.0 0.00 0.00 0.00 91 1029.1
20210307030511 32 350 0.0 1.0 0.00 0.00 0.00 90 1029.1
20210307030054 32 350 0.0 0.0 0.00 0.00 0.00 91 1029.1
20210307025903 32 350 0.0 0.0 0.00 0.00 0.00 91 1029.3
20210307025255 32 350 0.0 0.0 0.00 0.00 0.00 91 1029.3
20210307024541 32 350 0.0 1.0 0.00 0.00 0.00 91 1029.3
20210307023956 32 350 0.0 1.0 0.00 0.00 0.00 91 1029.4
20210307023449 32 350 0.0 1.0 0.00 0.00 0.00 91 1029.4
20210307023151 32 350 0.0 0.0 0.00 0.00 0.00 91 1029.5
20210307022328 32 350 0.0 1.0 0.00 0.00 0.00 90 1029.6
20210307021441 32 349 0.0 1.0 0.00 0.00 0.00 90 1029.7
20210307020930 32 349 0.0 1.0 0.00 0.00 0.00 90 1029.7
20210307020434 32 349 0.0 1.0 0.00 0.00 0.00 90 1029.7
20210307020124 33 349 0.0 1.0 0.00 0.00 0.00 90 1029.8
20210307015926 33 349 0.0 1.0 0.00 0.00 0.00 90 1029.9
20210307015135 33 349 0.0 1.0 0.00 0.00 0.00 91 1029.9
20210307014428 32 349 0.0 1.0 0.00 0.00 0.00 90 1030.0
20210307013927 32 349 0.0 1.0 0.00 0.00 0.00 90 1030.1
20210307013424 33 349 0.0 1.0 0.00 0.00 0.00 90 1030.1
20210307012926 33 349 0.0 2.0 0.00 0.00 0.00 90 1030.1
20210307012657 33 349 0.0 2.0 0.00 0.00 0.00 90 1030.3
20210307012000 33 349 0.0 2.0 0.00 0.00 0.00 90 1030.3
20210307011427 33 351 0.0 2.0 0.00 0.00 0.00 89 1030.3
20210307010922 33 349 0.0 2.0 0.00 0.00 0.00 89 1030.3
20210307010418 33 350 0.0 2.0 0.00 0.00 0.00 89 1030.3
20210307010049 33 350 1.0 2.0 0.00 0.00 0.00 89 1030.4
20210307005812 33 347 0.0 3.0 0.00 0.00 0.00 89 1030.3
20210307005139 33 342 1.0 3.0 0.00 0.00 0.00 89 1030.3
20210307004409 33 349 1.0 3.0 0.00 0.00 0.00 88 1030.4
20210307003916 33 341 1.0 3.0 0.00 0.00 0.00 88 1030.4
20210307003410 33 329 1.0 3.0 0.00 0.00 0.00 88 1030.4
20210307002913 33 10 1.0 3.0 0.00 0.00 0.00 88 1030.5
20210307002808 33 342 0.0 3.0 0.00 0.00 0.00 88 1030.5
20210307002137 33 351 1.0 2.0 0.00 0.00 0.00 87 1030.6
20210307001406 33 350 1.0 2.0 0.00 0.00 0.00 87 1030.6
20210307000905 33 350 0.0 2.0 0.00 0.00 0.00 87 1030.5
20210307000612 33 349 1.0 2.0 0.00 0.00 0.00 87 1030.5
20210307000133 33 349 1.0 3.0 0.00 0.00 0.00 86 1030.6
20210306235923 33 17 1.0 3.0 0.00 0.00 0.00 86 1030.7
20210306234956 33 0 1.0 3.0 0.00 0.00 0.00 86 1030.6
20210306234408 33 353 1.0 3.0 0.00 0.00 0.00 85 1030.8
20210306233922 33 6 1.0 2.0 0.00 0.00 0.00 85 1030.8
20210306233421 33 16 1.0 2.0 0.00 0.00 0.00 85 1030.8
20210306233040 34 18 0.0 2.0 0.00 0.00 0.00 85 1030.7
20210306232844 33 20 0.0 2.0 0.00 0.00 0.00 85 1030.8
20210306232135 33 20 1.0 3.0 0.00 0.00 0.00 84 1030.8
20210306231404 34 32 1.0 3.0 0.00 0.00 0.00 84 1030.7
20210306230902 34 38 0.0 4.0 0.00 0.00 0.00 84 1030.8
20210306230359 34 57 0.0 4.0 0.00 0.00 0.00 84 1030.8
20210306225939 34 57 1.0 4.0 0.00 0.00 0.00 84 1030.8
20210306225755 34 58 2.0 4.0 0.00 0.00 0.00 84 1030.9
20210306225035 34 57 1.0 4.0 0.00 0.00 0.00 83 1030.9
20210306224356 34 52 1.0 3.0 0.00 0.00 0.00 83 1030.9
20210306223858 34 52 1.0 4.0 0.00 0.00 0.00 83 1031.0
20210306223351 34 50 1.0 4.0 0.00 0.00 0.00 82 1031.1
20210306223030 34 56 1.0 3.0 0.00 0.00 0.00 82 1031.1
20210306222831 34 55 1.0 3.0 0.00 0.00 0.00 82 1031.0
20210306222024 34 55 1.0 3.0 0.00 0.00 0.00 82 1031.1
20210306221349 35 55 1.0 3.0 0.00 0.00 0.00 81 1031.1
20210306220853 35 55 1.0 4.0 0.00 0.00 0.00 81 1031.2
20210306220357 35 55 1.0 4.0 0.00 0.00 0.00 81 1031.2
20210306215902 35 53 2.0 7.0 0.00 0.00 0.00 81 1031.2
20210306215653 35 53 4.0 6.0 0.00 0.00 0.00 81 1031.3
20210306214939 35 54 4.0 8.0 0.00 0.00 0.00 81 1031.3
20210306214351 35 42 3.0 8.0 0.00 0.00 0.00 81 1031.4
20210306213853 35 52 4.0 6.0 0.00 0.00 0.00 80 1031.4
20210306213350 36 59 4.0 7.0 0.00 0.00 0.00 80 1031.4
20210306212943 36 55 4.0 8.0 0.00 0.00 0.00 80 1031.4
20210306212831 36 58 4.0 8.0 0.00 0.00 0.00 81 1031.4
20210306211935 35 39 3.0 8.0 0.00 0.00 0.00 80 1031.3
20210306211347 36 64 3.0 8.0 0.00 0.00 0.00 80 1031.3
20210306210840 36 56 3.0 8.0 0.00 0.00 0.00 80 1031.3
20210306210346 36 54 2.0 8.0 0.00 0.00 0.00 79 1031.4
20210306205847 36 35 2.0 6.0 0.00 0.00 0.00 79 1031.4
20210306205627 36 23 1.0 5.0 0.00 0.00 0.00 79 1031.5
20210306204910 36 38 2.0 5.0 0.00 0.00 0.00 78 1031.5
20210306204343 36 29 1.0 4.0 0.00 0.00 0.00 78 1031.5
20210306203842 36 43 1.0 5.0 0.00 0.00 0.00 78 1031.5
20210306203350 36 20 2.0 5.0 0.00 0.00 0.00 78 1031.5
20210306202937 36 32 1.0 5.0 0.00 0.00 0.00 78 1031.6
20210306202810 36 8 1.0 6.0 0.00 0.00 0.00 78 1031.6
20210306201933 36 59 1.0 6.0 0.00 0.00 0.00 78 1031.6
20210306201348 36 9 1.0 4.0 0.00 0.00 0.00 78 1031.6
20210306200836 36 57 1.0 5.0 0.00 0.00 0.00 78 1031.7
20210306200330 36 37 1.0 5.0 0.00 0.00 0.00 78 1031.6
20210306195840 36 16 1.0 5.0 0.00 0.00 0.00 78 1031.7
20210306195646 36 38 2.0 5.0 0.00 0.00 0.00 78 1031.7
20210306194841 36 60 2.0 3.0 0.00 0.00 0.00 78 1031.7
20210306194327 35 63 1.0 4.0 0.00 0.00 0.00 78 1031.7
20210306193823 36 69 1.0 4.0 0.00 0.00 0.00 77 1031.7
20210306193317 36 77 0.0 2.0 0.00 0.00 0.00 77 1031.7
20210306192820 36 77 0.0 1.0 0.00 0.00 0.00 77 1031.8
20210306192620 36 77 0.0 1.0 0.00 0.00 0.00 77 1031.8
20210306191850 36 77 0.0 1.0 0.00 0.00 0.00 77 1031.8
20210306191315 36 77 0.0 2.0 0.00 0.00 0.00 77 1031.9
20210306190812 36 77 0.0 2.0 0.00 0.00 0.00 77 1031.9
20210306190325 36 77 1.0 2.0 0.00 0.00 0.00 77 1031.9
20210306185918 36 77 1.0 3.0 0.00 0.00 0.00 77 1032.0
20210306185731 36 77 1.0 3.0 0.00 0.00 0.00 77 1032.0
20210306184942 36 80 0.0 2.0 0.00 0.00 0.00 76 1032.1
20210306184321 37 80 0.0 1.0 0.00 0.00 0.00 76 1032.1
20210306183805 37 81 0.0 1.0 0.00 0.00 0.00 76 1032.1
20210306183333 37 97 0.0 1.0 0.00 0.00 0.00 75 1032.1
20210306183056 37 97 0.0 1.0 0.00 0.00 0.00 74 1032.1
20210306182736 37 97 0.0 0.0 0.00 0.00 0.00 73 1032.1
20210306181802 38 97 0.0 1.0 0.00 0.00 0.00 72 1032.3
20210306181258 38 97 0.0 2.0 0.00 0.00 0.00 71 1032.3
20210306180755 38 97 1.0 2.0 0.00 0.00 0.00 71 1032.3
20210306180252 39 97 1.0 2.0 0.00 0.00 0.00 70 1032.3
20210306175938 39 97 0.0 2.0 0.00 0.00 0.00 69 1032.2
20210306175803 39 97 1.0 3.0 0.00 0.00 0.00 68 1032.3
20210306174759 39 97 2.0 3.0 0.00 0.00 0.00 68 1032.3
20210306174238 40 97 2.0 3.0 0.00 0.00 0.00 68 1032.4
20210306173734 40 97 1.0 3.0 0.00 0.00 0.00 68 1032.4
20210306173232 40 97 2.0 3.0 0.00 0.00 0.00 67 1032.3
20210306172947 40 98 2.0 4.0 0.00 0.00 0.00 67 1032.3
20210306172850 40 98 2.0 4.0 0.00 0.00 0.00 67 1032.3
20210306171949 40 99 2.0 4.0 0.00 0.00 0.00 67 1032.2
20210306171232 40 99 3.0 4.0 0.00 0.00 0.00 67 1032.2
20210306170734 41 95 3.0 4.0 0.00 0.00 0.00 66 1032.2
20210306170424 41 96 2.0 4.0 0.00 0.00 0.00 66 1032.2
20210306170221 41 106 2.0 6.0 0.00 0.00 0.00 65 1032.2
20210306165902 41 151 2.0 6.0 0.00 0.00 0.00 65 1032.2
20210306164835 41 106 3.0 6.0 0.00 0.00 0.00 64 1032.2
20210306164235 42 105 3.0 6.0 0.00 0.00 0.00 64 1032.3
20210306163751 42 118 2.0 4.0 0.00 0.00 0.00 62 1032.3
20210306163237 42 114 2.0 7.0 0.00 0.00 0.00 62 1032.3
20210306162858 42 122 2.0 7.0 0.00 0.00 0.00 62 1032.3
20210306162353 42 112 2.0 7.0 0.00 0.00 0.00 62 1032.3
20210306161735 42 116 2.0 7.0 0.00 0.00 0.00 62 1032.4
20210306161232 42 105 3.0 7.0 0.00 0.00 0.00 61 1032.4
20210306160744 42 156 4.0 7.0 0.00 0.00 0.00 61 1032.5
20210306160236 42 131 4.0 7.0 0.00 0.00 0.00 62 1032.6
20210306155855 42 97 4.0 8.0 0.00 0.00 0.00 62 1032.6
20210306155449 42 114 4.0 9.0 0.00 0.00 0.00 62 1032.7
20210306154746 42 85 5.0 11.0 0.00 0.00 0.00 63 1032.7
20210306154238 42 114 4.0 11.0 0.00 0.00 0.00 62 1032.8
20210306153735 42 75 3.0 7.0 0.00 0.00 0.00 61 1032.8
20210306153233 42 127 4.0 7.0 0.00 0.00 0.00 61 1032.8
20210306152819 42 77 4.0 8.0 0.00 0.00 0.00 61 1032.9
20210306152601 42 99 4.0 8.0 0.00 0.00 0.00 61 1032.9
20210306151901 43 76 4.0 11.0 0.00 0.00 0.00 60 1033.1
20210306151235 43 57 5.0 11.0 0.00 0.00 0.00 60 1033.1
20210306150744 43 91 5.0 11.0 0.00 0.00 0.00 61 1033.2
20210306150242 43 80 5.0 9.0 0.00 0.00 0.00 61 1033.3
20210306145815 43 84 5.0 9.0 0.00 0.00 0.00 60 1033.3
20210306145556 43 106 5.0 9.0 0.00 0.00 0.00 60 1033.4
20210306144759 43 115 4.0 9.0 0.00 0.00 0.00 60 1033.4
20210306144231 43 95 4.0 7.0 0.00 0.00 0.00 60 1033.4
20210306143739 43 68 4.0 10.0 0.00 0.00 0.00 62 1033.6
20210306143246 43 69 5.0 10.0 0.00 0.00 0.00 62 1033.5
20210306142836 43 66 4.0 9.0 0.00 0.00 0.00 62 1033.7
20210306142626 42 85 4.0 8.0 0.00 0.00 0.00 64 1033.8
20210306141736 42 83 3.0 6.0 0.00 0.00 0.00 63 1033.8
20210306141239 42 81 3.0 6.0 0.00 0.00 0.00 62 1033.9
20210306140731 42 86 4.0 7.0 0.00 0.00 0.00 61 1034.0
20210306140234 43 85 4.0 7.0 0.00 0.00 0.00 61 1034.1
20210306135851 43 64 3.0 8.0 0.00 0.00 0.00 61 1034.1
20210306135556 43 58 3.0 8.0 0.00 0.00 0.00 60 1034.1
20210306134812 43 70 2.0 7.0 0.00 0.00 0.00 61 1034.3
20210306134233 43 87 2.0 7.0 0.00 0.00 0.00 60 1034.2
20210306133742 43 82 3.0 8.0 0.00 0.00 0.00 60 1034.3
20210306133306 42 75 2.0 8.0 0.00 0.00 0.00 60 1034.4
20210306133137 42 141 2.0 6.0 0.00 0.00 0.00 61 1034.4
20210306132912 42 140 3.0 6.0 0.00 0.00 0.00 63 1034.4
20210306131733 41 99 3.0 7.0 0.00 0.00 0.00 64 1034.4
20210306131232 41 83 4.0 7.0 0.00 0.00 0.00 63 1034.5
20210306130724 41 79 4.0 7.0 0.00 0.00 0.00 63 1034.5
20210306130320 42 91 4.0 8.0 0.00 0.00 0.00 62 1034.6
20210306130058 42 72 4.0 8.0 0.00 0.00 0.00 63 1034.6
20210306125829 42 33 5.0 12.0 0.00 0.00 0.00 63 1034.6
20210306124722 42 43 5.0 12.0 0.00 0.00 0.00 63 1034.7
20210306124227 42 77 5.0 11.0 0.00 0.00 0.00 65 1034.7
20210306123735 42 68 4.0 12.0 0.00 0.00 0.00 66 1034.7
20210306123221 42 50 5.0 12.0 0.00 0.00 0.00 67 1034.7
20210306122955 42 80 6.0 11.0 0.00 0.00 0.00 66 1034.7
20210306122815 43 52 6.0 14.0 0.00 0.00 0.00 66 1034.7
20210306121753 43 43 5.0 14.0 0.00 0.00 0.00 65 1034.8
20210306121216 43 74 5.0 9.0 0.00 0.00 0.00 63 1034.8
20210306120726 43 62 4.0 9.0 0.00 0.00 0.00 60 1035.0
20210306120218 43 98 4.0 9.0 0.00 0.00 0.00 63 1035.0
20210306115955 43 160 5.0 12.0 0.00 0.00 0.00 63 1034.9
20210306115735 42 76 7.0 12.0 0.00 0.00 0.00 63 1035.1
20210306114727 42 60 7.0 12.0 0.00 0.00 0.00 66 1035.3
20210306114205 42 76 8.0 12.0 0.00 0.00 0.00 63 1035.2
20210306113901 42 83 6.0 12.0 0.00 0.00 0.00 67 1035.2
20210306113630 42 87 6.0 12.0 0.00 0.00 0.00 69 1035.3
20210306113214 41 84 7.0 13.0 0.00 0.00 0.00 67 1035.3
20210306113026 40 97 6.0 13.0 0.00 0.00 0.00 68 1035.4
20210306111715 40 103 5.0 12.0 0.00 0.00 0.00 69 1035.4
20210306111210 40 114 5.0 9.0 0.00 0.00 0.00 70 1035.5
20210306110720 40 101 5.0 11.0 0.00 0.00 0.00 70 1035.4
20210306110542 40 104 6.0 11.0 0.00 0.00 0.00 70 1035.5
20210306110120 40 100 6.0 11.0 0.00 0.00 0.00 71 1035.5
20210306105838 40 91 6.0 11.0 0.00 0.00 0.00 72 1035.6
20210306104725 40 91 5.0 11.0 0.00 0.00 0.00 71 1035.6
20210306104207 40 92 6.0 11.0 0.00 0.00 0.00 70 1035.6
20210306103716 41 95 6.0 11.0 0.00 0.00 0.00 69 1035.6
20210306103215 41 75 5.0 10.0 0.00 0.00 0.00 71 1035.8
20210306102853 41 43 5.0 10.0 0.00 0.00 0.00 73 1035.6
20210306102440 41 34 5.0 8.0 0.00 0.00 0.00 72 1035.6
20210306101718 41 102 4.0 9.0 0.00 0.00 0.00 72 1035.7
20210306101213 41 56 4.0 9.0 0.00 0.00 0.00 73 1035.8
20210306100707 41 79 5.0 8.0 0.00 0.00 0.00 73 1035.8
20210306100317 40 59 5.0 10.0 0.00 0.00 0.00 74 1035.8
20210306100042 40 78 5.0 10.0 0.00 0.00 0.00 74 1035.9
20210306095630 40 91 4.0 8.0 0.00 0.00 0.00 75 1035.9
20210306094711 40 71 4.0 8.0 0.00 0.00 0.00 75 1036.0
20210306094210 40 66 4.0 7.0 0.00 0.00 0.00 76 1036.0
20210306093703 40 60 3.0 7.0 0.00 0.00 0.00 77 1035.9
20210306093200 40 36 3.0 6.0 0.00 0.00 0.00 77 1035.9
20210306092904 40 72 3.0 6.0 0.00 0.00 0.00 77 1035.9
20210306092619 40 66 3.0 7.0 0.00 0.00 0.00 79 1036.0
20210306091656 39 89 3.0 7.0 0.00 0.00 0.00 81 1036.0
20210306091150 38 61 3.0 6.0 0.00 0.00 0.00 81 1036.1
20210306090657 38 72 2.0 6.0 0.00 0.00 0.00 82 1036.0
20210306090320 38 43 2.0 4.0 0.00 0.00 0.00 83 1035.9
20210306090132 38 62 2.0 4.0 0.00 0.00 0.00 83 1036.0
20210306085618 38 60 2.0 5.0 0.00 0.00 0.00 85 1035.9
20210306084649 37 95 2.0 5.0 0.00 0.00 0.00 87 1036.0
20210306084154 37 72 1.0 4.0 0.00 0.00 0.00 87 1036.0
20210306083746 36 58 2.0 5.0 0.00 0.00 0.00 89 1036.0
20210306083155 35 54 2.0 5.0 0.00 0.00 0.00 89 1036.1
20210306083036 35 54 2.0 4.0 0.00 0.00 0.00 89 1036.1
20210306082825 35 48 3.0 6.0 0.00 0.00 0.00 90 1036.1
20210306081649 34 49 3.0 6.0 0.00 0.00 0.00 90 1036.2
20210306081137 34 44 4.0 6.0 0.00 0.00 0.00 90 1036.1
20210306080640 34 54 3.0 6.0 0.00 0.00 0.00 90 1036.1
20210306080137 34 52 2.0 4.0 0.00 0.00 0.00 90 1036.0
20210306075938 34 51 1.0 4.0 0.00 0.00 0.00 91 1036.1
20210306075750 33 39 2.0 5.0 0.00 0.00 0.00 91 1036.1
20210306074629 33 39 3.0 5.0 0.00 0.00 0.00 91 1036.0
20210306074143 33 41 2.0 5.0 0.00 0.00 0.00 91 1036.1
20210306073631 33 34 2.0 4.0 0.00 0.00 0.00 91 1036.0
20210306073234 32 33 2.0 4.0 0.00 0.00 0.00 91 1036.0
20210306072959 32 33 2.0 4.0 0.00 0.00 0.00 91 1036.0
20210306072722 32 25 1.0 4.0 0.00 0.00 0.00 91 1035.9
20210306071647 32 23 1.0 4.0 0.00 0.00 0.00 91 1035.9
20210306071128 31 33 1.0 4.0 0.00 0.00 0.00 91 1035.9
20210306070623 31 37 1.0 4.0 0.00 0.00 0.00 91 1035.9
20210306070122 31 41 2.0 5.0 0.00 0.00 0.00 91 1035.8
20210306065904 31 40 2.0 5.0 0.00 0.00 0.00 91 1035.9
20210306065603 30 33 2.0 5.0 0.00 0.00 0.00 91 1035.7
20210306064619 30 43 1.0 5.0 0.00 0.00 0.00 91 1035.6
20210306064132 29 49 0.0 2.0 0.00 0.00 0.00 91 1035.6
20210306063615 29 52 0.0 0.0 0.00 0.00 0.00 90 1035.6
20210306063230 29 53 0.0 0.0 0.00 0.00 0.00 90 1035.5
20210306062955 29 53 0.0 0.0 0.00 0.00 0.00 90 1035.4
20210306062709 29 53 0.0 0.0 0.00 0.00 0.00 90 1035.4
20210306061613 29 53 0.0 0.0 0.00 0.00 0.00 90 1035.4
20210306061116 29 53 0.0 0.0 0.00 0.00 0.00 90 1035.4
20210306060612 29 53 0.0 1.0 0.00 0.00 0.00 90 1035.2
20210306060110 30 53 0.0 1.0 0.00 0.00 0.00 89 1035.2
20210306055834 30 53 0.0 1.0 0.00 0.00 0.00 89 1035.2
20210306055642 30 53 1.0 2.0 0.00 0.00 0.00 90 1035.1